Regional Weather Roundup
Issued by NWS

Home | Current Version | Previous Version | Text Only | Print | Product List | Glossary On
Versions: 1 2 3 4 5 6 7 8 9 10 11 12 13 14 15 16 17 18 19 20 21 22 23 24 25 26 27 28 29 30 31 32 33 34 35 36 37 38 39 40 41 42 43 44 45 46 47 48 49 50
873
ASUS43 KDMX 060108
RWRIA

WEATHER ROUNDUP FOR IOWA
NATIONAL WEATHER SERVICE DES MOINES IA
700 PM CST FRI FEB 05 2016

NOTE: "FAIR" INDICATES FEW OR NO CLOUDS BELOW 12,000 FEET WITH NO
SIGNIFICANT WEATHER AND/OR OBSTRUCTIONS TO VISIBILITY.

* - THESE STATIONS ARE NOT NWS STATIONS...THUS NOT UNDER NWS
QUALITY CONTROL.  THEY ALSO DO NOT REPORT WEATHER SUCH
AS PRECIPITATION OR FOG.

IAZ001>003-012>014-020>022-031>034-043>046-060200-
   NORTHWEST IOWA

CITY           SKY/WX    TMP DP  RH WIND       PRES   REMARKS
CARROLL *      CLOUDY    28  27  93 S13       30.23F WCI  18
CHEROKEE *     CLOUDY    27  27 100 S5        30.20F FOG     WCI  21
DENISON *      CLOUDY    28  27  93 S9        30.20F WCI  20
LE MARS *      CLOUDY    27  28 100 S6        30.22R WCI  20
ORANGE CITY *  LGT SNOW  27  27 100 CALM      30.19R
SHELDON *      MOCLDY    27  27 100 SW8       30.19R FOG     WCI  18
SIOUX CITY     CLOUDY    30  25  81 SE3       30.21S
SPENCER        CLOUDY    27  23  85 S9        30.20S FOG     WCI  18
STORM LAKE *   LGT SNOW  27  27 100 SW14      30.20F WCI  15
$$

IAZ055>058-069>071-079>083-090>094-060200-
   SOUTHWEST IOWA

CITY           SKY/WX    TMP DP  RH WIND       PRES   REMARKS
ATLANTIC *     CLOUDY    30  28  93 S10       30.25F WCI  21
AUDUBON *      MOCLDY    28  25  86 S9        30.25S WCI  20
CLARINDA *     CLOUDY    30  30 100 CALM      30.29S
COUNCIL BLFS * CLOUDY    30  30 100 S7        30.24F FOG     WCI  23
CRESTON *      CLOUDY    28  28 100 S10       30.28S WCI  19
HARLAN  *      CLOUDY    30  28  93 S12       30.27F FOG     WCI  21
LAMONI         LGT SNOW  30  25  81 S6        30.28S WCI  24
RED OAK *      CLOUDY    28  28 100 S6        30.27S FOG     WCI  22
SHENANDOAH *   CLOUDY    30  30 100 CALM      30.28S
$$

IAZ047>049-059>061-072>074-084-060200-
   CENTRAL IOWA

CITY           SKY/WX    TMP DP  RH WIND       PRES   REMARKS
AMES           LGT SNOW  26  24  92 S9        30.28S FOG     WCI  17
ANKENY *       MIX PCPN  28  27  93 S7        30.30R WCI  21
BOONE *        CLOUDY    25  25 100 S7        30.26R WCI  17
CHARITON *     MIX PCPN  32  21  64 S12       30.29S WCI  23
DES MOINES     FLURRIES  30  23  75 S8        30.30R WCI  22
GRINNELL*      FLURRIES  28  23  80 SE9       30.30S WCI  20
KNOXVILLE *    CLOUDY    30  21  69 S7        30.28F WCI  23
MARSHALLTOWN   LGT SNOW  25  22  88 S9        30.28S FOG     WCI  15
NEWTON *       CLOUDY    27  27 100 S10       30.30R FOG     WCI  17
PELLA *        CLOUDY    30  21  69 SE6       30.31S WCI  24
$$

IAZ004>006-015-016-023>025-035-036-060200-
   NORTH CENTRAL IOWA

CITY           SKY/WX    TMP DP  RH WIND       PRES   REMARKS
ALGONA *       CLOUDY    25  23  93 S15       30.22R WCI  12
CLARION *      MOCLDY    21  19  93 S12       30.25S WCI   9
ESTHERVILLE    CLOUDY    25  23  92 S16       30.19S WCI  12
FORT DODGE *   CLOUDY    27  21  80 S9        30.25S WCI  17
MASON CITY     CLOUDY    22  19  89 S12       30.25S WCI  10
FOREST CITY *  CLOUDY    23  21  93 S12       30.23S WCI  12
WEBSTER CITY * CLOUDY    25  23  93 S9        30.24R WCI  15
IOWA FALLS *   LGT SNOW  25  23  93 S10       30.27S WCI  15
$$

IAZ007>011-017>019-026>030-037>042-050>054-066-060200-
   NORTHEAST IOWA

CITY           SKY/WX    TMP DP  RH WIND       PRES   REMARKS
CEDAR RAPIDS   CLOUDY    28  22  78 SE9       30.30F WCI  19
CHARLES CITY * CLOUDY    23  21  93 S10       30.27S WCI  12
CLINTON *      CLOUDY    29  23  78 S7        30.34F WCI  22
DECORAH *      MIX PCPN  21  16  79 S5        30.27F WCI  15
DUBUQUE        CLOUDY    26  20  77 S7        30.31S WCI  18
MONTICELLO *   CLOUDY    28  23  80 S6        30.32S WCI  22
OELWEIN *      MIX PCPN  23  21  93 SE9       30.29F WCI  13
WATERLOO       CLOUDY    24  18  77 S5        30.29S WCI  18
$$

IAZ064-065-067-068-078-060200-
   EAST CENTRAL IOWA

CITY           SKY/WX    TMP DP  RH WIND       PRES   REMARKS
DAVENPORT      CLOUDY    29  21  72 S5        30.34F WCI  24
IOWA CITY      CLOUDY    28  22  78 S6        30.35F WCI  22
MT. PLEASANT * CLOUDY    32  23  69 S3        30.35S
MUSCATINE *    CLOUDY    30  21  69 CALM      30.36S
QUAD CITIES    CLOUDY    30  21  69 SE3       30.34F
$$

IAZ062-063-075>077-085>089-095>099-060200-
   SOUTHEAST IOWA

CITY           SKY/WX    TMP DP  RH WIND       PRES   REMARKS
BURLINGTON     CLOUDY    27  21  78 CALM      30.35R
FAIRFIELD *    MOCLDY    30  21  69 S7        30.33S WCI  23
FORT MADISON * CLOUDY    28  23  80 CALM      30.36S
KEOKUK *       CLOUDY    30  21  69 CALM      30.35S
OSKALOOSA *    CLOUDY    30  21  69 SE8       30.31F WCI  23
CENTERVILLE *    N/A    N/A N/A N/A MISG        N/A
OTTUMWA        CLOUDY    30  20  66 SE8       30.31F WCI  22
WASHINGTON *   CLOUDY    28  25  86 SE6       30.35F WCI  22
$$

ABBREVIATIONS USED IN REMARKS
   TC - TEMPERATURES IN CELSIUS
  WCI - WIND CHILL INDEX
   HX - HEAT INDEX
  VSB - VISIBILITY
$$





USA.gov is the U.S. government's official web portal to all federal, state and local government web resources and services.